"Pseudo-MPEC" for C15DUU2

Created 2019 Oct 11 13:07:16 UT using Find_Orb

Click here for an explanation of pseudo-MPECs

 
 Astrometry: 
     C15DUU2  C2019 10 09.41086 04 08 52.43 +28 25 32.3    ~A9Ab 20.1 GVNEOCPG96
     C15DUU2  C2019 10 09.41603 04 08 52.31 +28 26 25.5    ~A9Ab 20.3 GVNEOCPG96
     C15DUU2  C2019 10 09.42120 04 08 52.17 +28 27 18.6    ~A9Ab 20.6 GVNEOCPG96
     C15DUU2  C2019 10 09.42638 04 08 52.04 +28 28 11.7    ~A9Ab 21.4 GVNEOCPG96
     C15DUU2  C2019 10 09.45575 04 08 51.28 +28 33 13.1    ~A9BM       VNEOCPI52
     C15DUU2  C2019 10 09.45950 04 08 51.16 +28 33 50.9    ~A9BM       VNEOCPI52
     C15DUU2  C2019 10 10.36067 04 10 20.87 +31 36 45.3    ~AA9M 20.4 GVNEOCPG96
     C15DUU2  C2019 10 10.36142 04 10 20.87 +31 36 57.5    ~AA9M 20.5 GVNEOCPG96
     C15DUU2  C2019 10 10.36217 04 10 20.85 +31 37 07.4    ~AA9M 20.1 GVNEOCPG96
     C15DUU2 pC2019 10 10%ZJxP$Astrometry0sr3[$6@d:`tL7pv6HVredacted;G]JEbJa3L01
     C15DUU2 KC2019 10 10#kkgcSAjs+^3Y0KP,aRbbjgapO215VaVOJV(k!VP_C0pn:clickVL01
     C15DUU2 IC2019 10 100lsL\:4-C:iu!EJL!,qV`2fTLvrIk/cY-YZGHUmY(Hhere@%\uBhL01
     C15DUU2 KC2019 10 11;Qn7of;:u$s7eRrf'iG;qp[Ku='J`oe7cV`*q!%vfortq;'C('JqK87
     C15DUU2 KC2019 10 11O?hy:NrAxXk=I.s/8Eduexplanation_56@XG\iPX)VLWNG/`8L/K87
     C15DUU2 KC2019 10 11Gs9E]W@vF0X)orHK*R'Vc0XsppEZqyS1DjBACO7!2UJ*Xu5dWEMgK87

Station data:
(G96) Mt. Lemmon Survey  (N32.442754 W110.788720)  US/Arizona.  Observers T.
   A. Pruyne, B. M. Africano, E. J. Christensen, G. A. Farneth, D. C. Fuls,
   A. R. Gibbs, A. D. Grauer, H. Groeller, J. A. Johnson, R. A. Kowalski, S.
   M. Larson, G. J. Leonard, D. Rankin, R. L. Seaman, F. C. Shelly. 1.5-m
   reflector + 10K CCD.
(I52) Steward Observatory, Mt. Lemmon Station  (N32.442547 W110.788920)
   US/Arizona.  Observers T. A. Pruyne, B. M. Africano, E. J. Christensen, G.
   A. Farneth, D. C. Fuls, A. R. Gibbs, A. D. Grauer, H. Groeller, J. A.
   Johnson, R. A. Kowalski, S. M. Larson, G. J. Leonard, D. Rankin, R. L.
   Seaman, F. C. Shelly. 1.0-m reflector + CCD.
(K87) Dettelbach Vineyard Observatory  (N49.807693 E10.170110)  Germany.
(L01) Višnjan Observatory, Tičan  (N45.290900 E13.749300)  Croatia.
   Observers K. Korlević, E. Pettarin. Measurer E. Pettarin. 1.0-m f/2.9
   reflector + CCD.

Orbital elements:  C15DUU2
   Perihelion 2019 Dec 31.412984 +/- 0.0619 TT =  9:54:41 (JD 2458848.912984)
Epoch 2019 Oct 11.0 TT = JDT 2458767.5   Earth MOID: 0.0093   Ve: 0.0320
M 238.04028410 +/- 0.048            Me: 0.0277                AutoNEOCP
n   1.49803765 +/- 0.000549         Peri.  158.80301 +/- 0.0047
a   0.75646277 +/- 0.000185         Node    13.58103 +/- 0.0045
e   0.4529621 +/- 0.000611          Incl.    4.14558 +/- 0.009
P   0.66/240.31d           H 26.3   G  0.15   U  7.7  
q 0.41381379 +/- 0.000563    Q 1.09911175 +/- 0.000194
From 15 observations 2019 Oct. 9-11 (40.6 hr); mean residual 0".36
Residuals in arcseconds: 
191009 G96  .30-  .39+    191009 I52  .14+  .75-    191010 L01  .14-  .44+    
191009 G96  .10-  .40+    191010 G96  .26-  .42-    191010 L01  .91+  .45-    
191009 G96  .14-  .33+    191010 G96  .19-  .78+    191011 K87  .25-  .12+    
191009 G96  .01-  .18+    191010 G96  .39-  .31-    191011 K87  .04-  .17-    
191009 I52  .42+  .08-    191010 L01  .29-  .17+    191011 K87  .16+  .08-    

Ephemerides (geocentric):
Date (UTC) HH   RA              Dec         delta   r     elong  mag " sig PA
---- -- -- --  -------------   -----------  ------ ------ -----  --- ---- ---
2019 10 11 13  04 12 56.258   +37 39 35.29  .02313 1.0126 127.6 20.1 .446 152
2019 10 11 14  04 13 04.203   +37 56 10.77  .02290 1.0124 127.5 20.0 .469 153
2019 10 11 15  04 13 12.361   +38 13 06.24  .02268 1.0123 127.4 20.0 .494 154
2019 10 11 16  04 13 20.739   +38 30 22.25  .02245 1.0121 127.3 20.0 .519 155
2019 10 11 17  04 13 29.349   +38 47 59.40  .02222 1.0119 127.2 20.0 .547 156
2019 10 11 18  04 13 38.199   +39 05 58.27  .02199 1.0117 127.1 20.0 .576 157
2019 10 11 19  04 13 47.302   +39 24 19.48  .02177 1.0115 127.0 19.9 .606 158
2019 10 11 20  04 13 56.668   +39 43 03.67  .02154 1.0113 126.8 19.9 .638 159
2019 10 11 21  04 14 06.309   +40 02 11.50  .02132 1.0111 126.7 19.9 .672 160
2019 10 11 22  04 14 16.240   +40 21 43.64  .02109 1.0110 126.6 19.9 .707 161
2019 10 11 23  04 14 26.472   +40 41 40.81  .02087 1.0108 126.4 19.9 .745 161
2019 10 12 00  04 14 37.022   +41 02 03.73  .02065 1.0106 126.3 19.8 .784 162
2019 10 12 01  04 14 47.904   +41 22 53.14  .02043 1.0104 126.2 19.8 .826 163
2019 10 12 02  04 14 59.135   +41 44 09.84  .02020 1.0102 126.0 19.8 .870 164
2019 10 12 03  04 15 10.733   +42 05 54.61  .01998 1.0100 125.9 19.8 .916 164
2019 10 12 04  04 15 22.717   +42 28 08.30  .01976 1.0098 125.7 19.8 .964 165
2019 10 12 05  04 15 35.107   +42 50 51.74  .01955 1.0096 125.5 19.8 1.02 166
2019 10 12 06  04 15 47.925   +43 14 05.84  .01933 1.0095 125.3 19.7 1.07 167
2019 10 12 07  04 16 01.194   +43 37 51.50  .01911 1.0093 125.2 19.7 1.13 167
2019 10 12 08  04 16 14.939   +44 02 09.66  .01890 1.0091 125.0 19.7 1.18 168
2019 10 12 09  04 16 29.187   +44 27 01.30  .01868 1.0089 124.8 19.7 1.25 168
2019 10 12 10  04 16 43.966   +44 52 27.42  .01847 1.0087 124.6 19.7 1.31 169
2019 10 12 11  04 16 59.309   +45 18 29.06  .01825 1.0085 124.4 19.6 1.38 170
2019 10 12 12  04 17 15.247   +45 45 07.28  .01804 1.0083 124.2 19.6 1.45 170
2019 10 12 13  04 17 31.818   +46 12 23.17  .01783 1.0081 123.9 19.6 1.53 171
2019 10 12 14  04 17 49.060   +46 40 17.88  .01762 1.0079 123.7 19.6 1.61 171
2019 10 12 15  04 18 07.016   +47 08 52.57  .01741 1.0077 123.5 19.6 1.69 172
2019 10 12 16  04 18 25.733   +47 38 08.44  .01721 1.0076 123.2 19.5 1.78 172
2019 10 12 17  04 18 45.260   +48 08 06.71  .01700 1.0074 123.0 19.5 1.88 173
2019 10 12 18  04 19 05.652   +48 38 48.66  .01679 1.0072 122.7 19.5 1.97 173
2019 10 12 19  04 19 26.968   +49 10 15.57  .01659 1.0070 122.4 19.5 2.08 174
2019 10 12 20  04 19 49.275   +49 42 28.79  .01639 1.0068 122.1 19.5 2.18 174
2019 10 12 21  04 20 12.642   +50 15 29.67  .01619 1.0066 121.8 19.4 2.30 175
2019 10 12 22  04 20 37.149   +50 49 19.61  .01599 1.0064 121.5 19.4 2.41 175
2019 10 12 23  04 21 02.882   +51 24 00.03  .01579 1.0062 121.2 19.4 2.54 176
2019 10 13 00  04 21 29.936   +51 59 32.38  .01560 1.0060 120.9 19.4 2.67 176
2019 10 13 01  04 21 58.417   +52 35 58.13  .01540 1.0058 120.5 19.4 2.80 176
2019 10 13 02  04 22 28.441   +53 13 18.79  .01521 1.0056 120.2 19.4 2.95 177
2019 10 13 03  04 23 00.138   +53 51 35.87  .01502 1.0054 119.8 19.3 3.10 177
2019 10 13 04  04 23 33.653   +54 30 50.90  .01483 1.0052 119.4 19.3 3.26 178
2019 10 13 05  04 24 09.148   +55 11 05.45  .01465 1.0051 119.0 19.3 3.42 178
2019 10 13 06  04 24 46.803   +55 52 21.05  .01446 1.0049 118.6 19.3 3.59 179
2019 10 13 07  04 25 26.824   +56 34 39.26  .01428 1.0047 118.2 19.3 3.77 179
2019 10 13 08  04 26 09.441   +57 18 01.64  .01410 1.0045 117.7 19.3 3.96 179
2019 10 13 09  04 26 54.916   +58 02 29.71  .01393 1.0043 117.3 19.3 4.16   0
2019 10 13 10  04 27 43.547   +58 48 04.98  .01375 1.0041 116.8 19.2 4.37   0
2019 10 13 11  04 28 35.673   +59 34 48.93  .01358 1.0039 116.3 19.2 4.58   1
2019 10 13 12  04 29 31.687   +60 22 42.98  .01341 1.0037 115.8 19.2 4.81   1